Tracking 22124 objects as of 23-Jan-2021
HD Live streaming from Space Station
objects crossing your sky now

IRIDIUM 38

Track IRIDIUM 38 now!
10-day predictions
IRIDIUM 38 is classified as:


NORAD ID: 25043
Int'l Code: 1997-069E
Perigee: 777.2 km
Apogee: 779.0 km
Inclination: 86.4 °
Period: 100.3 minutes
Semi major axis: 7149 km
RCS: 5.0293 m2 (large)
Launch date: November 9, 1997
Source: United States (US)
Launch site: AIR FORCE WESTERN TEST RANGE (AFWTR)
aabbcc
Your satellite tracking list
Your tracking list is empty




NASA's NSSDC Master Catalog

Two Line Element Set (TLE):
1 25043U 97069E   21022.83136854  .00000108  00000-0  30323-4 0  9994
2 25043  86.3987 187.5163 0001230  49.2656 310.8648 14.36235250215296
Source of the keplerian elements: AFSPC